Dubuque, IA

11:16 AM CDT on July 27, 2017 (GMT -0500)
Dubuque Regional

Weather History for KDBQ - May, 2013

Change the Weather History Date:

Tuesday, May 14, 2013

  Actual Average Record
Temperature  
Mean Temperature 71 °F 58 °F  
Max Temperature 90 °F 68 °F 92 °F (1932)
Min Temperature 51 °F 48 °F 30 °F (1895)
Degree Days  
Heating Degree Days 0 8  
Month to date heating degree days 152 132  
Since 1 July heating degree days 7192 6953  
Cooling Degree Days 6 1  
Month to date cooling degree days 6 6  
Year to date cooling degree days 14 11  
Growing Degree Days 20 (Base 50)    
Moisture  
Dew Point 52 °F    
Average Humidity 55    
Maximum Humidity 83    
Minimum Humidity 27    
Precipitation  
Precipitation 0.00 in 0.14 in 2.14 in (1985)
Month to date precipitation 3.31 1.87  
Year to date precipitation 17.84 10.55  
Snow  
Snow 0.00 in 0.00 in - ()
Month to date snowfall 0.0 0.1  
Since 1 July snowfall 54.5 42.0  
Snow Depth 0.00 in    
Sea Level Pressure  
Sea Level Pressure 29.74 in    
Wind  
Wind Speed 12 mph (SSW)    
Max Wind Speed 25 mph    
Max Gust Speed 31 mph    
Visibility 10 miles    
Events      
T = Trace of Precipitation, MM = Missing Value Source: NWS Daily Summary

Daily Weather History Graph

Daily Weather History Graph

Search for Another Location

Airport or City:

Trip Planner

Search our weather history database for the weather conditions in past years. The results will help you decide how hot, cold, wet, or windy it might be!

Date:

Astronomy

May. 14, 2013 Rise Set
Actual Time 5:42 AM CDT 8:16 PM CDT
Civil Twilight 5:09 AM CDT 8:49 PM CDT
Nautical Twilight 4:29 AM CDT 9:29 PM CDT
Astronomical Twilight 3:44 AM CDT 10:15 PM CDT
Moon 9:22 AM CDT (5/14) No Moon Set
Length of Visible Light 15h 39m
Length of Day
14h 34m
Waxing Crescent, 19% of the Moon is Illuminated
May 14
Waxing Crescent
May 17
First Quarter
May 24
Full
May 31
Last Quarter
Jun 8
New

Hourly Weather History & Observations

Time (CDT) Temp. Heat Index Dew Point Humidity Pressure Visibility Wind Dir Wind Speed Gust Speed Precip Events Conditions
12:53 AM 55.9 °F - 42.1 °F 60% 29.86 in 10.0 mi South 16.1 mph - N/A   Clear
1:53 AM 55.0 °F - 42.1 °F 62% 29.83 in 10.0 mi SSW 16.1 mph - N/A   Clear
2:53 AM 55.0 °F - 42.1 °F 62% 29.79 in 10.0 mi SSW 18.4 mph - N/A   Clear
3:53 AM 54.0 °F - 43.0 °F 66% 29.77 in 10.0 mi SSW 19.6 mph - N/A   Clear
4:53 AM 53.1 °F - 44.1 °F 71% 29.77 in 10.0 mi SSW 15.0 mph - N/A   Clear
5:53 AM 52.0 °F - 45.0 °F 77% 29.77 in 10.0 mi South 9.2 mph - N/A   Clear
6:53 AM 54.0 °F - 48.0 °F 80% 29.77 in 10.0 mi SSW 6.9 mph - N/A   Clear
7:53 AM 59.0 °F - 51.1 °F 75% 29.77 in 10.0 mi SW 9.2 mph - N/A   Clear
8:53 AM 64.9 °F - 55.0 °F 70% 29.77 in 10.0 mi WSW 11.5 mph - N/A   Clear
9:53 AM 69.1 °F - 55.9 °F 63% 29.76 in 10.0 mi WSW 10.4 mph - N/A   Clear
10:53 AM 75.0 °F - 59.0 °F 57% 29.77 in 10.0 mi SW 6.9 mph - N/A   Clear
11:53 AM 79.0 °F - 59.0 °F 50% 29.77 in 10.0 mi SW 5.8 mph - N/A   Clear
12:53 PM 82.9 °F 82.4 °F 57.0 °F 41% 29.74 in 10.0 mi SSW 6.9 mph - N/A   Clear
1:53 PM 86.0 °F 84.7 °F 55.9 °F 36% 29.72 in 10.0 mi SSW 12.7 mph - N/A   Clear
2:53 PM 89.1 °F - 51.1 °F 27% 29.70 in 10.0 mi South 9.2 mph - N/A   Clear
3:53 PM 89.1 °F - 51.1 °F 27% 29.67 in 10.0 mi South 16.1 mph - N/A   Clear
4:53 PM 89.1 °F - 51.1 °F 27% 29.63 in 10.0 mi SSW 20.7 mph - N/A   Clear
5:53 PM 88.0 °F 86.5 °F 55.9 °F 34% 29.59 in 10.0 mi South 24.2 mph 29.9 mph N/A   Clear
6:53 PM 84.9 °F 84.4 °F 59.0 °F 41% 29.58 in 10.0 mi SSW 17.3 mph 25.3 mph N/A   Clear
7:53 PM 82.0 °F 82.7 °F 61.0 °F 49% - 10.0 mi SSW 17.3 mph - N/A   Clear
8:53 PM 81.0 °F 81.3 °F 59.0 °F 47% - 10.0 mi SW 3.5 mph - N/A   Clear
9:53 PM 73.9 °F - 59.0 °F 59% - 10.0 mi South 10.4 mph - N/A   Clear
10:53 PM 72.0 °F - 57.9 °F 61% - 10.0 mi SSW 10.4 mph - N/A   Clear
11:53 PM 69.1 °F - 57.9 °F 68% - 10.0 mi WSW 10.4 mph - N/A   Clear